CSHVD LPCS-LPPT

Flight info

Callsign CSHVD
Flight time 0h 1m
Altitude 1500
Route ENACI TR RALIS
Aircraft H269/L-VGD/C

Departure

Time 2026-04-29 06:37
Airport Cascais Airport (LPCS)

Arrival

Time 2026-04-29 06:38
Airport Lisbon Humberto Delgado Airport (LPPT)
Time Latitude Longitude Altitude Speed Heading
2026-04-29 06:18 38.72301 -9.35779 312 ft 0 kts 87°
2026-04-29 06:29 38.72300 -9.35779 312 ft 0 kts 91°
2026-04-29 06:29 38.72293 -9.35772 320 ft 2 kts 120°
2026-04-29 06:29 38.72295 -9.35741 319 ft 3 kts 84°
2026-04-29 06:30 38.72300 -9.35713 321 ft 3 kts 88°
2026-04-29 06:30 38.72321 -9.35616 322 ft 6 kts 88°
2026-04-29 06:30 38.72333 -9.35563 324 ft 5 kts 82°
2026-04-29 06:31 38.72339 -9.35551 326 ft 2 kts 83°
2026-04-29 06:31 38.72341 -9.35538 322 ft 1 kts 85°
2026-04-29 06:31 38.72342 -9.35545 323 ft 0 kts 98°
2026-04-29 06:31 38.72341 -9.35523 323 ft 2 kts 80°
2026-04-29 06:32 38.72369 -9.35462 340 ft 10 kts
2026-04-29 06:32 38.72607 -9.35533 466 ft 54 kts 342°
2026-04-29 06:32 38.73013 -9.35684 604 ft 66 kts 342°
2026-04-29 06:32 38.73445 -9.35711 759 ft 68 kts 27°
2026-04-29 06:33 38.73368 -9.35223 807 ft 62 kts 160°
2026-04-29 06:33 38.72932 -9.35036 792 ft 72 kts 152°
2026-04-29 06:33 38.72583 -9.34576 798 ft 73 kts 123°
2026-04-29 06:33 38.72279 -9.34084 826 ft 71 kts 123°
2026-04-29 06:34 38.71980 -9.33581 823 ft 71 kts 115°
2026-04-29 06:34 38.71794 -9.32963 767 ft 78 kts 99°
2026-04-29 06:34 38.71663 -9.32336 732 ft 68 kts 114°
2026-04-29 06:34 38.71418 -9.31846 710 ft 65 kts 121°
2026-04-29 06:35 38.71178 -9.31350 725 ft 66 kts 123°
2026-04-29 06:35 38.70917 -9.30844 712 ft 70 kts 118°
2026-04-29 06:35 38.70708 -9.30318 759 ft 65 kts 118°
2026-04-29 06:35 38.70631 -9.29766 821 ft 61 kts 90°
2026-04-29 06:36 38.70640 -9.29177 823 ft 64 kts 84°
2026-04-29 06:36 38.70671 -9.28626 882 ft 62 kts 89°
2026-04-29 06:36 38.70679 -9.28034 857 ft 72 kts 90°
2026-04-29 06:36 38.70706 -9.27389 831 ft 71 kts 82°
2026-04-29 06:37 38.70754 -9.26782 890 ft 65 kts 84°
2026-04-29 06:37 38.70784 -9.26226 926 ft 63 kts 85°
2026-04-29 06:37 38.70803 -9.25657 895 ft 66 kts 90°
2026-04-29 06:37 38.70675 -9.25098 799 ft 60 kts 137°
2026-04-29 06:38 38.70472 -9.24633 693 ft 57 kts 128°
2026-04-29 06:38 38.70282 -9.24236 608 ft 45 kts 130°
2026-04-29 06:38 38.70103 -9.23909 478 ft 41 kts 132°
2026-04-29 06:38 38.69960 -9.23654 364 ft 29 kts 140°
2026-04-29 06:39 38.69843 -9.23495 233 ft 25 kts 159°
2026-04-29 06:39 38.69687 -9.23408 212 ft 20 kts 196°
2026-04-29 06:39 38.69622 -9.23436 117 ft 11 kts 262°
2026-04-29 06:39 38.69598 -9.23511 94 ft 7 kts 259°
2026-04-29 06:40 38.69575 -9.23539 42 ft 5 kts 240°
2026-04-29 06:40 38.69560 -9.23560 4 ft 2 kts 238°
2026-04-29 06:40 38.69559 -9.23561 4 ft 0 kts 237°
2026-04-29 06:40 38.69562 -9.23565 63 ft 4 kts 250°
2026-04-29 06:41 38.69559 -9.23590 134 ft 12 kts 256°
2026-04-29 06:41 38.69528 -9.23661 300 ft 25 kts 180°
2026-04-29 06:41 38.69415 -9.23389 514 ft 51 kts 91°
2026-04-29 06:41 38.69372 -9.22846 623 ft 67 kts 86°
2026-04-29 06:42 38.69386 -9.22236 732 ft 69 kts 90°
2026-04-29 06:42 38.69402 -9.21644 913 ft 69 kts 88°
2026-04-29 06:42 38.69549 -9.21043 1091 ft 76 kts 64°
2026-04-29 06:42 38.69791 -9.20358 1057 ft 87 kts 64°
2026-04-29 06:43 38.70017 -9.19645 1069 ft 85 kts 60°
2026-04-29 06:43 38.70324 -9.18958 1018 ft 90 kts 54°
2026-04-29 06:43 38.70625 -9.18290 1038 ft 84 kts 57°
2026-04-29 06:43 38.70982 -9.17649 908 ft 92 kts 40°
2026-04-29 06:44 38.71387 -9.17061 951 ft 81 kts 45°
2026-04-29 06:44 38.71780 -9.16572 1019 ft 81 kts 31°
2026-04-29 06:44 38.72298 -9.16284 1034 ft 79 kts 24°
2026-04-29 06:44 38.72801 -9.15968 1028 ft 81 kts 28°
2026-04-29 06:45 38.73342 -9.15887 1024 ft 80 kts 22°
2026-04-29 06:45 38.73875 -9.15710 910 ft 79 kts 23°
2026-04-29 06:45 38.74379 -9.15500 785 ft 70 kts 22°
2026-04-29 06:45 38.74823 -9.15278 714 ft 69 kts 37°
2026-04-29 06:46 38.75260 -9.15077 693 ft 66 kts 28°
2026-04-29 06:46 38.75677 -9.14858 642 ft 66 kts 27°
2026-04-29 06:46 38.76100 -9.14667 553 ft 64 kts 29°
2026-04-29 06:46 38.76467 -9.14482 497 ft 53 kts 33°
2026-04-29 06:47 38.76777 -9.14318 433 ft 42 kts 40°
2026-04-29 06:47 38.77011 -9.14183 430 ft 38 kts 26°
2026-04-29 06:47 38.77268 -9.14044 424 ft 42 kts 32°
2026-04-29 06:47 38.77537 -9.13902 422 ft 38 kts 35°
2026-04-29 06:48 38.77768 -9.13787 405 ft 31 kts 38°
2026-04-29 06:48 38.77934 -9.13695 402 ft 28 kts 55°
2026-04-29 06:48 38.78118 -9.13599 411 ft 21 kts 30°
2026-04-29 06:48 38.78123 -9.13593 440 ft 11 kts 185°
2026-04-29 06:49 38.78010 -9.13567 404 ft 19 kts 183°
2026-04-29 06:49 38.77875 -9.13523 408 ft 17 kts 177°
2026-04-29 06:49 38.77737 -9.13493 408 ft 18 kts 173°
2026-04-29 06:49 38.77647 -9.13443 391 ft 13 kts 131°
2026-04-29 06:50 38.77681 -9.13366 403 ft 14 kts 32°
2026-04-29 06:50 38.77750 -9.13346 389 ft 8 kts 10°
2026-04-29 06:50 38.77787 -9.13322 387 ft 5 kts 94°
2026-04-29 06:50 38.77797 -9.13271 381 ft 2 kts 90°
2026-04-29 06:51 38.77799 -9.13254 377 ft 0 kts 84°